TimeCDT,TemperatureF,Dew PointF,Humidity,Sea Level PressureIn,VisibilityMPH,Wind Direction,Wind SpeedMPH,Gust SpeedMPH,PrecipitationIn,Events,Conditions,WindDirDegrees,DateUTC
12:56 AM,72.9,63.9,73,29.94,10.0,SE,15.0,-,N/A,,Mostly Cloudy,140,2013-05-08 05:56:00
1:56 AM,72.9,63.9,73,29.92,10.0,SSE,16.1,-,N/A,,Unknown,160,2013-05-08 06:56:00
2:24 AM,73.4,64.4,73,29.94,10.0,SSE,18.4,26.5,N/A,,Overcast,160,2013-05-08 07:24:00
2:56 AM,72.9,63.9,73,29.91,10.0,SSE,15.0,-,N/A,,Overcast,150,2013-05-08 07:56:00
3:56 AM,72.9,64.9,76,29.90,10.0,SSE,12.7,-,N/A,,Overcast,150,2013-05-08 08:56:00
4:56 AM,72.9,64.9,76,29.90,10.0,SSE,12.7,-,N/A,,Overcast,150,2013-05-08 09:56:00
5:56 AM,72.9,64.9,76,29.91,10.0,SSE,11.5,-,N/A,,Overcast,150,2013-05-08 10:56:00
6:56 AM,72.9,64.9,76,29.91,10.0,SE,13.8,-,N/A,,Overcast,140,2013-05-08 11:56:00
7:56 AM,72.9,64.9,76,29.94,10.0,SE,13.8,-,N/A,,Overcast,140,2013-05-08 12:56:00
8:56 AM,73.9,64.9,73,29.95,10.0,SE,13.8,-,N/A,,Unknown,140,2013-05-08 13:56:00
9:33 AM,75.2,66.2,73,29.99,10.0,SSE,13.8,-,N/A,,Overcast,150,2013-05-08 14:33:00
9:56 AM,74.8,65.8,73,29.96,10.0,SSE,11.5,-,N/A,,Overcast,160,2013-05-08 14:56:00
10:56 AM,77.0,65.8,68,29.96,10.0,SSE,13.8,-,N/A,,Overcast,150,2013-05-08 15:56:00
11:56 AM,79.0,65.8,64,29.95,10.0,South,12.7,-,N/A,,Overcast,170,2013-05-08 16:56:00
12:15 PM,80.6,64.4,58,29.97,10.0,SSE,13.8,-,N/A,,Unknown,160,2013-05-08 17:15:00
12:56 PM,82.9,65.8,56,29.93,-9999.0,SE,16.1,21.9,N/A,,Scattered Clouds,140,2013-05-08 17:56:00
1:56 PM,86.9,64.9,48,29.91,10.0,SSE,12.7,19.6,N/A,,Scattered Clouds,150,2013-05-08 18:56:00
2:56 PM,88.9,64.9,45,29.88,10.0,ESE,12.7,-,N/A,,Partly Cloudy,120,2013-05-08 19:56:00
3:56 PM,90.9,64.9,42,29.86,10.0,SSE,17.3,24.2,N/A,,Clear,160,2013-05-08 20:56:00
4:56 PM,91.9,64.9,41,29.83,10.0,SSE,17.3,-,N/A,,Clear,150,2013-05-08 21:56:00
5:56 PM,91.9,63.9,39,29.82,10.0,SSE,11.5,20.7,N/A,,Clear,150,2013-05-08 22:56:00
6:56 PM,90.0,64.9,43,29.80,10.0,SE,17.3,21.9,N/A,,Clear,130,2013-05-08 23:56:00
7:56 PM,86.9,64.9,48,29.81,10.0,SE,19.6,-,N/A,,Clear,140,2013-05-09 00:56:00
8:56 PM,83.8,65.8,55,29.83,10.0,SE,18.4,-,N/A,,Clear,130,2013-05-09 01:56:00
9:56 PM,81.0,65.8,60,29.86,10.0,SSE,15.0,-,N/A,,Clear,150,2013-05-09 02:56:00
10:56 PM,79.0,65.8,64,29.88,10.0,SE,17.3,-,N/A,,Clear,140,2013-05-09 03:56:00
11:56 PM,77.0,66.9,71,29.89,10.0,SSE,18.4,23.0,N/A,,Mostly Cloudy,150,2013-05-09 04:56:00